Weather Roundup
Issued by NWS Springfield, MO

Home | Current Version | Previous Version | Text Only | Print | Product List | Glossary On
Versions: 1 2 3 4 5 6 7 8 9 10 11 12 13 14 15 16 17 18 19 20 21 22 23 24 25 26 27 28 29 30 31 32 33 34 35 36 37 38 39 40 41 42 43 44 45 46 47 48 49 50
000
NZUS99 KSGF 011559
HRRSGF

HOURLY WEATHER
NATIONAL WEATHER SERVICE SPRINGFIELD MO
1000 AM CST SUN FEB 01 2015

......SGF CWA......

CITY           SKY/WX    TMP DP  RH WIND       PRES   REMARKS
SPRINGFIELD    LGT RAIN  44  41  89 W13       29.71S FOG
JOPLIN         LGT RAIN  41  39  93 W24G36    29.77R
WEST PLAINS    CLOUDY    45  43  93 SW13      29.72F FOG
ROLLA          LGT RAIN  38  36  92 SW9       29.68F FOG     WCI  31
OSAGE BEACH    CLOUDY    39  37  93 SW5       29.71S
BRANSON        CLOUDY    46  45  93 W16G24    29.74S

......SURROUNDING SGF CWA......

CITY           SKY/WX    TMP DP  RH WIND       PRES   REMARKS
CHANUTE        CLOUDY    34  31  88 NW22G35   29.85R WCI  22
PARSONS        CLOUDY    36  32  85 NW23G35   29.87R WCI  24
COFFEYVILLE    CLOUDY    36  31  82 NW21G36   29.88R WCI  25
EMPORIA        CLOUDY    27  22  81 NW26G38   29.90R WCI  12
ROGERS AR      LGT RAIN  43  43 100 W14G22    29.78R FOG
SILOAM SPRINGS CLOUDY    43  37  81 W18G29    29.82R
HARRISON AR    CLOUDY    48  45  89 W14       29.74S
NEAR YELLVILLE CLOUDY    48  43  81 SW7       29.75S

......KANSAS AND MISSOURI......

CITY           SKY/WX    TMP DP  RH WIND       PRES   REMARKS
KANSAS CTY INT LGT SNOW  32  32 100 NW13      29.76R FOG     WCI  22
DOWNTOWN KC    FLURRIES  34  32  92 NW10      29.76R WCI  26
COLUMBIA       LGT RAIN  35  35 100 SW3       29.70F FOG
SEDALIA        LGT RAIN  37  36  96 SW5       29.70F FOG     WCI  33
ST JOSEPH      LGT SNOW  33  32  96 NW14      29.79R VSB 1   WCI  23
ST LOUIS       CLOUDY    38  35  89 SE6       29.72F FOG     WCI  33
SPIRIT OF STL  CLOUDY    37  36  96 CALM      29.71F FOG
KIRKSVILLE       N/A     33  33 100 MISG      29.72S FOG
WICHITA        CLOUDY    25  18  74 N32G43    30.01R WCI   8
TOPEKA         LGT SNOW  31  28  89 NW18G32   29.85R FOG     WCI  19
OLATHE         LGT SNOW  34  33  96 NW16G22   29.75R FOG     WCI  24

......TENNESSEE......

CITY           SKY/WX    TMP DP  RH WIND       PRES   REMARKS
MEMPHIS        RAIN      56  53  90 SW17G30   29.82F
NASHVILLE      LGT RAIN  45  38  76 S21G26    29.93F

......ARKANSAS.......

CITY           SKY/WX    TMP DP  RH WIND       PRES   REMARKS
FAYETTEVILLE   CLOUDY    44  43  96 W17G25    29.79R
FT SMITH       CLOUDY    47  44  90 W14       29.84R
LITTLE ROCK    CLOUDY    57  53  86 S8        29.80F

......OKLAHOMA.......

CITY           SKY/WX    TMP DP  RH WIND       PRES   REMARKS
TULSA          CLOUDY    38  33  82 NW23G32   29.92R WCI  27
PONCA CITY     CLOUDY    32  24  72 NW23G39   30.00R WCI  19
MCALESTER      LGT RAIN  45  38  76 NW20G32   29.92R
OKLAHOMA CITY  CLOUDY    36  28  73 NW31G39   30.00R WCI  23

......IOWA............

CITY           SKY/WX    TMP DP  RH WIND       PRES   REMARKS
DES MOINES     SNOW      29  25  85 NE22G28   29.84R VSB 1/2 WCI  15
QUAD CITIES    LGT SNOW  31  28  89 NE18G29   29.80S VSB 3/4 WCI  19

......ILLINOIS........

CITY           SKY/WX    TMP DP  RH WIND       PRES   REMARKS
QUINCY         SNOW      33  31  92 E3        29.71F VSB 1/2
CHICAGO        HVY SNOW  29  27  92 NE18      29.90F VSB 1/4 WCI  16



USA.gov is the U.S. government's official web portal to all federal, state and local government web resources and services.